^^
Meteo Knjazevac Station Historical Data
Daily Summary for October 15, 2021 Units:  English    Metric   Both
Daily Weekly Monthly Yearly Custom
  High: Low: Average:
Temperature: 43.5 °F 43 °F 43.2 °F
Dew Point: 43 °F 41.1 °F 42 °F
Humidity: 98% 93% 96%
Wind Speed: 8mph 5mph 6.6mph
Wind Gust: 21mph - -
Wind- - NNW
Pressure: 30.21 in 30.19 in -
Precipitation: 0.01 in    
Historical Graphs
 
 
Tabular Data for October 15, 2021
Time Temperature Dew Point Pressure Wind Wind Speed Wind Gust Humidity Rainfall Rate (Hourly) solar Conditions
00:00 43 °F 41.1 °F 30.21 in North 7 mph 12 mph 93% 0.00 in 0 W/m2
00:10 43 °F 41.4 °F 30.21 in North 5 mph 12 mph 94% 0.00 in 0 W/m2
00:20 43 °F 41.1 °F 30.21 in North 5 mph 12 mph 93% 0.00 in 0 W/m2
00:30 43 °F 41.4 °F 30.21 in North 8 mph 13 mph 94% 0.00 in 0 W/m2
00:40 43.2 °F 41.6 °F 30.21 in North 6 mph 12 mph 94% 0.00 in 0 W/m2
00:50 43.1 °F 41.4 °F 30.21 in North 6 mph 12 mph 94% 0.00 in 0 W/m2
01:00 43.2 °F 41.6 °F 30.21 in North 5 mph 14 mph 94% 0.00 in 0 W/m2
01:10 43.2 °F 41.8 °F 30.21 in North 7 mph 14 mph 95% 0.00 in 0 W/m2
01:20 43.2 °F 41.8 °F 30.21 in North 7 mph 13 mph 95% 0.00 in 0 W/m2
01:30 43.2 °F 41.8 °F 30.21 in North 6 mph 15 mph 95% 0.00 in 0 W/m2
01:40 43.2 °F 42.1 °F 30.21 in North 7 mph 15 mph 96% 0.00 in 0 W/m2
01:50 43.2 °F 42.1 °F 30.20 in NNW 7 mph 16 mph 96% 0.00 in 0 W/m2
02:00 43.2 °F 42.1 °F 30.20 in North 7 mph 15 mph 96% 0.00 in 0 W/m2
02:10 43.2 °F 42.6 °F 30.20 in North 7 mph 14 mph 98% 0.00 in 0 W/m2
02:20 43.2 °F 42.6 °F 30.20 in North 7 mph 21 mph 98% 0.00 in 0 W/m2
02:30 43.2 °F 42.6 °F 30.20 in North 7 mph 14 mph 98% 0.00 in 0 W/m2
02:40 43.2 °F 42.6 °F 30.20 in North 6 mph 13 mph 98% 0.00 in 0 W/m2
02:50 43.2 °F 42.7 °F 30.19 in North 7 mph 15 mph 98% 0.00 in 0 W/m2
03:00 43.3 °F 42.8 °F 30.19 in North 6 mph 15 mph 98% 0.00 in 0 W/m2
03:10 43.5 °F 43 °F 30.19 in North 7 mph 16 mph 98% 0.00 in 0 W/m2
03:20 43.3 °F 42.8 °F 30.19 in North 8 mph 13 mph 98% 0.01 in 0 W/m2
Knjazevac, Serbia
Compliments of Weather Underground - 2 mb